Time,TemperatureF,DewpointF,PressureIn,WindDirection,WindDirectionDegrees,WindSpeedMPH,WindSpeedGustMPH,Humidity,HourlyPrecipIn,Conditions,Clouds,dailyrainin,SoftwareType,DateUTC
2013-04-19 00:01:00,46.6,34.3,30.18,NW,317,1.0,1.0,62,0.00,,CLR,0.00,VWS V14.01,2013-04-19 05:01:00,
2013-04-19 00:06:00,46.5,33.8,30.18,NNW,333,2.0,2.0,61,0.00,,CLR,0.00,VWS V14.01,2013-04-19 05:06:00,
2013-04-19 00:11:00,46.5,33.8,30.18,NW,308,1.0,1.0,61,0.00,,CLR,0.00,VWS V14.01,2013-04-19 05:11:00,
2013-04-19 00:16:00,46.4,34.1,30.18,NNW,339,0.0,1.0,62,0.00,,CLR,0.00,VWS V14.01,2013-04-19 05:16:00,
2013-04-19 00:21:00,46.2,33.9,30.18,NW,317,2.0,3.0,62,0.00,,CLR,0.00,VWS V14.01,2013-04-19 05:21:00,
2013-04-19 00:26:00,46.2,33.9,30.18,North,5,1.0,1.0,62,0.00,,CLR,0.00,VWS V14.01,2013-04-19 05:26:00,
2013-04-19 00:31:00,46.1,33.8,30.18,NNE,18,2.0,3.0,62,0.00,,CLR,0.00,VWS V14.01,2013-04-19 05:31:00,
2013-04-19 00:36:00,46.0,33.7,30.18,NNE,15,1.0,2.0,62,0.00,,CLR,0.00,VWS V14.01,2013-04-19 05:36:00,
2013-04-19 00:41:00,45.9,33.6,30.19,North,360,2.0,5.0,62,0.00,,CLR,0.00,VWS V14.01,2013-04-19 05:41:00,
2013-04-19 00:46:00,45.9,33.6,30.19,NNW,334,1.0,1.0,62,0.00,,CLR,0.00,VWS V14.01,2013-04-19 05:46:00,
2013-04-19 00:51:00,45.8,33.5,30.19,NNW,344,0.0,1.0,62,0.00,,CLR,0.00,VWS V14.01,2013-04-19 05:51:00,
2013-04-19 00:56:00,45.7,33.4,30.19,NNW,330,1.0,2.0,62,0.00,,CLR,0.00,VWS V14.01,2013-04-19 05:56:00,
2013-04-19 01:01:00,45.5,33.7,30.19,North,351,0.0,1.0,63,0.00,,CLR,0.00,VWS V14.01,2013-04-19 06:01:00,
2013-04-19 01:06:00,45.3,34.2,30.19,NW,313,0.0,2.0,65,0.00,,CLR,0.00,VWS V14.01,2013-04-19 06:06:00,
2013-04-19 01:11:00,45.0,34.3,30.19,NNW,332,0.0,1.0,66,0.00,,CLR,0.00,VWS V14.01,2013-04-19 06:11:00,
2013-04-19 01:16:00,44.7,34.8,30.19,NNW,327,0.0,0.0,68,0.00,,CLR,0.00,VWS V14.01,2013-04-19 06:16:00,
2013-04-19 01:21:00,44.4,34.9,30.18,NW,317,0.0,0.0,69,0.00,,CLR,0.00,VWS V14.01,2013-04-19 06:21:00,
2013-04-19 01:26:00,44.1,35.0,30.18,NNW,340,0.0,1.0,70,0.00,,CLR,0.00,VWS V14.01,2013-04-19 06:26:00,
2013-04-19 01:32:00,43.9,34.8,30.18,NNW,333,0.0,0.0,70,0.00,,CLR,0.00,VWS V14.01,2013-04-19 06:32:00,
2013-04-19 01:36:00,43.7,34.6,30.18,North,351,1.0,2.0,70,0.00,,CLR,0.00,VWS V14.01,2013-04-19 06:36:00,
2013-04-19 01:41:00,43.8,34.3,30.18,NNW,345,0.0,0.0,69,0.00,,CLR,0.00,VWS V14.01,2013-04-19 06:41:00,
2013-04-19 01:46:00,43.6,34.5,30.18,NNW,344,0.0,0.0,70,0.00,,CLR,0.00,VWS V14.01,2013-04-19 06:46:00,
2013-04-19 01:52:00,43.2,34.5,30.18,NNW,344,0.0,0.0,71,0.00,,CLR,0.00,VWS V14.01,2013-04-19 06:52:00,
2013-04-19 01:57:00,42.7,34.7,30.18,NNW,344,0.0,0.0,73,0.00,,CLR,0.00,VWS V14.01,2013-04-19 06:57:00,
2013-04-19 02:02:00,42.2,34.9,30.18,NNW,344,0.0,0.0,75,0.00,,CLR,0.00,VWS V14.01,2013-04-19 07:02:00,
2013-04-19 02:07:00,41.7,34.7,30.18,NNW,344,0.0,0.0,76,0.00,,CLR,0.00,VWS V14.01,2013-04-19 07:07:00,
2013-04-19 02:12:00,41.3,34.7,30.18,NNW,344,0.0,0.0,77,0.00,,CLR,0.00,VWS V14.01,2013-04-19 07:12:00,
2013-04-19 02:17:00,41.2,34.9,30.18,NNW,345,0.0,0.0,78,0.00,,CLR,0.00,VWS V14.01,2013-04-19 07:17:00,
2013-04-19 02:22:00,41.3,35.0,30.18,NNW,344,0.0,0.0,78,0.00,,CLR,0.00,VWS V14.01,2013-04-19 07:22:00,
2013-04-19 02:27:00,41.3,35.0,30.18,NNW,344,0.0,0.0,78,0.00,,CLR,0.00,VWS V14.01,2013-04-19 07:27:00,
2013-04-19 02:32:00,41.2,34.5,30.17,NNW,340,0.0,0.0,77,0.00,,CLR,0.00,VWS V14.01,2013-04-19 07:32:00,
2013-04-19 02:37:00,41.2,34.5,30.17,NNW,340,0.0,0.0,77,0.00,,CLR,0.00,VWS V14.01,2013-04-19 07:37:00,
2013-04-19 02:42:00,41.1,34.8,30.17,NNW,340,0.0,1.0,78,0.00,,CLR,0.00,VWS V14.01,2013-04-19 07:42:00,
2013-04-19 02:47:00,41.1,34.8,30.17,NNE,17,0.0,0.0,78,0.00,,CLR,0.00,VWS V14.01,2013-04-19 07:47:00,
2013-04-19 02:52:00,41.1,34.5,30.17,NNE,17,0.0,0.0,77,0.00,,CLR,0.00,VWS V14.01,2013-04-19 07:52:00,
2013-04-19 02:57:00,41.0,34.7,30.17,NNE,17,0.0,0.0,78,0.00,,CLR,0.00,VWS V14.01,2013-04-19 07:57:00,
2013-04-19 03:02:00,40.9,34.6,30.18,NNE,17,0.0,0.0,78,0.00,,CLR,0.00,VWS V14.01,2013-04-19 08:02:00,
2013-04-19 03:07:00,40.8,34.5,30.18,North,11,0.0,0.0,78,0.00,,CLR,0.00,VWS V14.01,2013-04-19 08:07:00,
2013-04-19 03:12:00,40.9,34.3,30.18,NNW,332,0.0,1.0,77,0.00,,CLR,0.00,VWS V14.01,2013-04-19 08:12:00,
2013-04-19 03:17:00,41.0,34.3,30.18,NNW,330,0.0,0.0,77,0.00,,CLR,0.00,VWS V14.01,2013-04-19 08:17:00,
2013-04-19 03:22:00,41.0,34.3,30.18,NNW,330,0.0,0.0,77,0.00,,CLR,0.00,VWS V14.01,2013-04-19 08:22:00,
2013-04-19 03:27:00,40.8,34.2,30.18,NNW,330,0.0,0.0,77,0.00,,CLR,0.00,VWS V14.01,2013-04-19 08:27:00,
2013-04-19 03:32:00,40.6,34.3,30.19,NNW,331,0.0,0.0,78,0.00,,CLR,0.00,VWS V14.01,2013-04-19 08:32:00,
2013-04-19 03:37:00,40.4,33.8,30.19,North,355,0.0,0.0,77,0.00,,CLR,0.00,VWS V14.01,2013-04-19 08:37:00,
2013-04-19 03:42:00,40.4,33.8,30.19,NE,44,0.0,0.0,77,0.00,,CLR,0.00,VWS V14.01,2013-04-19 08:42:00,
2013-04-19 03:47:00,40.3,33.7,30.19,NE,46,0.0,0.0,77,0.00,,CLR,0.00,VWS V14.01,2013-04-19 08:47:00,
2013-04-19 03:52:00,40.3,33.7,30.19,NNE,28,0.0,0.0,77,0.00,,CLR,0.00,VWS V14.01,2013-04-19 08:52:00,
2013-04-19 03:57:00,40.1,33.5,30.19,NNE,28,0.0,0.0,77,0.00,,CLR,0.00,VWS V14.01,2013-04-19 08:57:00,
2013-04-19 04:02:00,40.0,33.7,30.20,NNE,28,0.0,0.0,78,0.00,,CLR,0.00,VWS V14.01,2013-04-19 09:02:00,
2013-04-19 04:07:00,39.8,33.5,30.20,NNE,29,0.0,0.0,78,0.00,,CLR,0.00,VWS V14.01,2013-04-19 09:07:00,
2013-04-19 04:12:00,39.7,33.4,30.20,NNE,28,0.0,0.0,78,0.00,,CLR,0.00,VWS V14.01,2013-04-19 09:12:00,
2013-04-19 04:17:00,39.7,33.4,30.20,NNE,20,0.0,0.0,78,0.00,,CLR,0.00,VWS V14.01,2013-04-19 09:17:00,
2013-04-19 04:22:00,39.6,33.3,30.20,North,350,0.0,0.0,78,0.00,,CLR,0.00,VWS V14.01,2013-04-19 09:22:00,
2013-04-19 04:27:00,39.4,33.1,30.21,North,350,0.0,0.0,78,0.00,,CLR,0.00,VWS V14.01,2013-04-19 09:27:00,
2013-04-19 04:32:00,39.4,33.1,30.21,North,350,0.0,0.0,78,0.00,,CLR,0.00,VWS V14.01,2013-04-19 09:32:00,
2013-04-19 04:37:00,39.4,33.1,30.21,NNW,347,0.0,0.0,78,0.00,,CLR,0.00,VWS V14.01,2013-04-19 09:37:00,
2013-04-19 04:42:00,39.4,33.1,30.22,NNW,337,0.0,0.0,78,0.00,,CLR,0.00,VWS V14.01,2013-04-19 09:42:00,
2013-04-19 04:47:00,39.4,32.8,30.22,NNW,337,0.0,0.0,77,0.00,,CLR,0.00,VWS V14.01,2013-04-19 09:47:00,
2013-04-19 04:52:00,39.4,32.8,30.22,NNW,337,0.0,0.0,77,0.00,,CLR,0.00,VWS V14.01,2013-04-19 09:52:00,
2013-04-19 04:57:00,39.2,32.6,30.22,NNW,338,0.0,0.0,77,0.00,,CLR,0.00,VWS V14.01,2013-04-19 09:57:00,
2013-04-19 05:02:00,39.2,32.9,30.22,NNW,338,0.0,0.0,78,0.00,,CLR,0.00,VWS V14.01,2013-04-19 10:02:00,
2013-04-19 05:07:00,39.1,32.8,30.23,NNW,338,0.0,0.0,78,0.00,,CLR,0.00,VWS V14.01,2013-04-19 10:07:00,
2013-04-19 05:12:00,38.8,32.9,30.23,NNW,338,0.0,0.0,79,0.00,,CLR,0.00,VWS V14.01,2013-04-19 10:12:00,
2013-04-19 05:17:00,38.6,33.0,30.23,NNW,346,0.0,0.0,80,0.00,,CLR,0.00,VWS V14.01,2013-04-19 10:17:00,
2013-04-19 05:22:00,38.3,33.0,30.24,NNW,346,0.0,0.0,81,0.00,,CLR,0.00,VWS V14.01,2013-04-19 10:22:00,
2013-04-19 05:27:00,38.1,32.8,30.24,NNW,346,0.0,0.0,81,0.00,,CLR,0.00,VWS V14.01,2013-04-19 10:27:00,
2013-04-19 05:32:00,37.8,32.8,30.24,NNW,346,0.0,0.0,82,0.00,,CLR,0.00,VWS V14.01,2013-04-19 10:32:00,
2013-04-19 05:37:00,37.6,32.6,30.24,NNW,346,0.0,0.0,82,0.00,,CLR,0.00,VWS V14.01,2013-04-19 10:37:00,
2013-04-19 05:42:00,37.4,32.4,30.24,NNW,346,0.0,0.0,82,0.00,,CLR,0.00,VWS V14.01,2013-04-19 10:42:00,
2013-04-19 05:47:00,37.2,32.5,30.25,NNW,346,0.0,0.0,83,0.00,,CLR,0.00,VWS V14.01,2013-04-19 10:47:00,
2013-04-19 05:52:00,36.9,32.5,30.25,NNW,346,0.0,0.0,84,0.00,,CLR,0.00,VWS V14.01,2013-04-19 10:52:00,
2013-04-19 05:57:00,36.7,32.3,30.25,NNW,346,0.0,0.0,84,0.00,,CLR,0.00,VWS V14.01,2013-04-19 10:57:00,
2013-04-19 06:02:00,36.5,32.4,30.25,NNW,346,0.0,1.0,85,0.00,,CLR,0.00,VWS V14.01,2013-04-19 11:02:00,
2013-04-19 06:07:00,36.4,32.3,30.25,WSW,257,0.0,0.0,85,0.00,,CLR,0.00,VWS V14.01,2013-04-19 11:07:00,
2013-04-19 06:12:00,36.6,32.5,30.25,West,259,0.0,0.0,85,0.00,,CLR,0.00,VWS V14.01,2013-04-19 11:12:00,
2013-04-19 06:17:00,36.7,32.6,30.25,West,259,0.0,0.0,85,0.00,,CLR,0.00,VWS V14.01,2013-04-19 11:17:00,
2013-04-19 06:22:00,36.9,32.8,30.26,West,259,0.0,0.0,85,0.00,,CLR,0.00,VWS V14.01,2013-04-19 11:22:00,
2013-04-19 06:27:00,37.0,32.9,30.26,West,259,0.0,0.0,85,0.00,,CLR,0.00,VWS V14.01,2013-04-19 11:27:00,
2013-04-19 06:32:00,37.1,33.0,30.26,West,259,0.0,0.0,85,0.00,,CLR,0.00,VWS V14.01,2013-04-19 11:32:00,
2013-04-19 06:37:00,37.1,32.7,30.26,West,259,0.0,0.0,84,0.00,,CLR,0.00,VWS V14.01,2013-04-19 11:37:00,
2013-04-19 06:42:00,36.9,32.5,30.26,West,259,0.0,0.0,84,0.00,,CLR,0.00,VWS V14.01,2013-04-19 11:42:00,
2013-04-19 06:47:00,36.8,32.7,30.26,West,259,0.0,0.0,85,0.00,,CLR,0.00,VWS V14.01,2013-04-19 11:47:00,
2013-04-19 06:52:00,36.7,32.6,30.27,West,259,0.0,0.0,85,0.00,,CLR,0.00,VWS V14.01,2013-04-19 11:52:00,
2013-04-19 06:57:00,36.7,32.6,30.27,West,259,0.0,0.0,85,0.00,,CLR,0.00,VWS V14.01,2013-04-19 11:57:00,
2013-04-19 07:02:00,36.6,32.5,30.27,West,259,0.0,0.0,85,0.00,,CLR,0.00,VWS V14.01,2013-04-19 12:02:00,
2013-04-19 07:07:00,36.5,32.4,30.27,West,259,0.0,0.0,85,0.00,,CLR,0.00,VWS V14.01,2013-04-19 12:07:00,
2013-04-19 07:12:00,36.5,32.4,30.27,West,259,0.0,0.0,85,0.00,,CLR,0.00,VWS V14.01,2013-04-19 12:12:00,
2013-04-19 07:17:00,36.7,32.6,30.28,NW,317,0.0,0.0,85,0.00,,CLR,0.00,VWS V14.01,2013-04-19 12:17:00,
2013-04-19 07:22:00,37.1,32.7,30.28,WNW,303,0.0,0.0,84,0.00,,CLR,0.00,VWS V14.01,2013-04-19 12:22:00,
2013-04-19 07:27:00,37.4,32.7,30.28,WNW,303,0.0,0.0,83,0.00,,CLR,0.00,VWS V14.01,2013-04-19 12:27:00,
2013-04-19 07:32:00,37.8,32.8,30.28,NNE,20,1.0,1.0,82,0.00,,CLR,0.00,VWS V14.01,2013-04-19 12:32:00,
2013-04-19 07:37:00,38.2,32.9,30.28,NE,42,1.0,1.0,81,0.00,,CLR,0.00,VWS V14.01,2013-04-19 12:37:00,
2013-04-19 07:42:00,38.7,33.1,30.28,West,276,0.0,1.0,80,0.00,,CLR,0.00,VWS V14.01,2013-04-19 12:42:00,
2013-04-19 07:47:00,39.5,33.2,30.28,West,275,0.0,1.0,78,0.00,,CLR,0.00,VWS V14.01,2013-04-19 12:47:00,
2013-04-19 07:52:00,40.5,33.5,30.28,WNW,293,0.0,1.0,76,0.00,,CLR,0.00,VWS V14.01,2013-04-19 12:52:00,
2013-04-19 07:57:00,41.4,33.4,30.28,WNW,288,0.0,1.0,73,0.00,,CLR,0.00,VWS V14.01,2013-04-19 12:57:00,
2013-04-19 08:02:00,42.2,33.5,30.28,West,279,1.0,1.0,71,0.00,,CLR,0.00,VWS V14.01,2013-04-19 13:02:00,
2013-04-19 08:07:00,42.8,33.3,30.29,West,279,1.0,1.0,69,0.00,,CLR,0.00,VWS V14.01,2013-04-19 13:07:00,
2013-04-19 08:12:00,43.3,33.5,30.29,West,277,2.0,2.0,68,0.00,,CLR,0.00,VWS V14.01,2013-04-19 13:12:00,
2013-04-19 08:17:00,43.9,33.3,30.29,WNW,283,1.0,1.0,66,0.00,,CLR,0.00,VWS V14.01,2013-04-19 13:17:00,
2013-04-19 08:22:00,44.4,33.0,30.29,SSW,211,1.0,2.0,64,0.00,,CLR,0.00,VWS V14.01,2013-04-19 13:22:00,
2013-04-19 08:27:00,45.1,33.3,30.29,WNW,300,0.0,1.0,63,0.00,,CLR,0.00,VWS V14.01,2013-04-19 13:27:00,
2013-04-19 08:32:00,45.7,32.6,30.29,NNW,344,2.0,2.0,60,0.00,,CLR,0.00,VWS V14.01,2013-04-19 13:32:00,
2013-04-19 08:37:00,45.8,32.3,30.30,NNW,330,2.0,2.0,59,0.00,,CLR,0.00,VWS V14.01,2013-04-19 13:37:00,
2013-04-19 08:42:00,45.9,31.5,30.30,NNW,340,2.0,4.0,57,0.00,,CLR,0.00,VWS V14.01,2013-04-19 13:42:00,
2013-04-19 08:48:00,46.0,31.2,30.30,NW,306,1.0,5.0,56,0.00,,CLR,0.00,VWS V14.01,2013-04-19 13:48:00,
2013-04-19 08:53:00,46.3,31.0,30.30,WNW,291,1.0,4.0,55,0.00,,CLR,0.00,VWS V14.01,2013-04-19 13:53:00,
2013-04-19 08:58:00,46.5,31.7,30.30,NNW,338,4.0,5.0,56,0.00,,CLR,0.00,VWS V14.01,2013-04-19 13:58:00,
2013-04-19 09:03:00,47.0,32.1,30.30,NNW,334,2.0,2.0,56,0.00,,CLR,0.00,VWS V14.01,2013-04-19 14:03:00,
2013-04-19 09:08:00,47.0,31.2,30.30,NW,324,3.0,4.0,54,0.00,,CLR,0.00,VWS V14.01,2013-04-19 14:08:00,
2013-04-19 09:13:00,47.3,31.0,30.30,North,350,1.0,2.0,53,0.00,,CLR,0.00,VWS V14.01,2013-04-19 14:13:00,
2013-04-19 09:18:00,47.7,31.4,30.30,WSW,252,0.0,2.0,53,0.00,,CLR,0.00,VWS V14.01,2013-04-19 14:18:00,
2013-04-19 09:23:00,47.7,30.0,30.30,NNE,13,4.0,5.0,50,0.00,,CLR,0.00,VWS V14.01,2013-04-19 14:23:00,
2013-04-19 09:28:00,47.9,30.2,30.30,North,360,2.0,5.0,50,0.00,,CLR,0.00,VWS V14.01,2013-04-19 14:28:00,
2013-04-19 09:33:00,47.8,31.0,30.30,NNE,16,2.0,6.0,52,0.00,,CLR,0.00,VWS V14.01,2013-04-19 14:33:00,
2013-04-19 09:38:00,48.1,30.8,30.30,NNE,22,3.0,5.0,51,0.00,,CLR,0.00,VWS V14.01,2013-04-19 14:38:00,
2013-04-19 09:43:00,48.5,31.2,30.30,NNW,337,7.0,7.0,51,0.00,,CLR,0.00,VWS V14.01,2013-04-19 14:43:00,
2013-04-19 09:48:00,48.7,27.8,30.30,North,350,3.0,7.0,44,0.00,,CLR,0.00,VWS V14.01,2013-04-19 14:48:00,
2013-04-19 09:53:00,48.6,28.8,30.30,North,5,5.0,6.0,46,0.00,,CLR,0.00,VWS V14.01,2013-04-19 14:53:00,
2013-04-19 09:58:00,49.0,27.5,30.31,WNW,303,1.0,8.0,43,0.00,,CLR,0.00,VWS V14.01,2013-04-19 14:58:00,
2013-04-19 10:03:00,49.1,26.4,30.31,NE,54,2.0,9.0,41,0.00,,CLR,0.00,VWS V14.01,2013-04-19 15:03:00,
2013-04-19 10:08:00,49.0,26.9,30.31,NNE,19,5.0,7.0,42,0.00,,CLR,0.00,VWS V14.01,2013-04-19 15:08:00,
2013-04-19 10:13:00,49.5,28.0,30.31,NNE,33,10.0,10.0,43,0.00,,CLR,0.00,VWS V14.01,2013-04-19 15:13:00,
2013-04-19 10:18:00,49.6,27.5,30.31,NNW,327,2.0,8.0,42,0.00,,CLR,0.00,VWS V14.01,2013-04-19 15:18:00,
2013-04-19 10:23:00,49.6,28.6,30.31,NNW,331,2.0,4.0,44,0.00,,CLR,0.00,VWS V14.01,2013-04-19 15:23:00,
2013-04-19 10:28:00,50.0,29.5,30.31,NNW,344,2.0,7.0,45,0.00,,CLR,0.00,VWS V14.01,2013-04-19 15:28:00,
2013-04-19 10:33:00,51.0,28.7,30.31,NNW,338,5.0,9.0,42,0.00,,CLR,0.00,VWS V14.01,2013-04-19 15:33:00,
2013-04-19 10:38:00,51.0,29.3,30.31,NNW,327,2.0,7.0,43,0.00,,CLR,0.00,VWS V14.01,2013-04-19 15:38:00,
2013-04-19 10:43:00,51.3,27.8,30.31,NNW,328,4.0,8.0,40,0.00,,CLR,0.00,VWS V14.01,2013-04-19 15:43:00,
2013-04-19 10:48:00,51.2,28.3,30.32,NNE,23,1.0,3.0,41,0.00,,CLR,0.00,VWS V14.01,2013-04-19 15:48:00,
2013-04-19 10:53:00,52.0,29.6,30.32,West,275,0.0,2.0,42,0.00,,CLR,0.00,VWS V14.01,2013-04-19 15:53:00,
2013-04-19 10:58:00,52.4,30.6,30.32,NNW,333,4.0,4.0,43,0.00,,CLR,0.00,VWS V14.01,2013-04-19 15:58:00,
2013-04-19 11:03:00,52.4,31.1,30.31,ENE,70,1.0,4.0,44,0.00,,CLR,0.00,VWS V14.01,2013-04-19 16:03:00,
2013-04-19 11:08:00,53.0,29.3,30.31,NW,304,4.0,5.0,40,0.00,,CLR,0.00,VWS V14.01,2013-04-19 16:08:00,
2013-04-19 11:13:00,53.4,30.9,30.32,NE,55,0.0,2.0,42,0.00,,CLR,0.00,VWS V14.01,2013-04-19 16:13:00,
2013-04-19 11:18:00,54.1,30.3,30.31,SW,230,4.0,5.0,40,0.00,,CLR,0.00,VWS V14.01,2013-04-19 16:18:00,
2013-04-19 11:23:00,53.6,28.6,30.31,NW,322,0.0,5.0,38,0.00,,CLR,0.00,VWS V14.01,2013-04-19 16:23:00,
2013-04-19 11:28:00,53.6,29.3,30.31,NE,53,1.0,6.0,39,0.00,,CLR,0.00,VWS V14.01,2013-04-19 16:28:00,
2013-04-19 11:33:00,53.8,29.4,30.31,WNW,303,2.0,4.0,39,0.00,,CLR,0.00,VWS V14.01,2013-04-19 16:33:00,
2013-04-19 11:38:00,54.2,31.6,30.31,ENE,58,3.0,3.0,42,0.00,,CLR,0.00,VWS V14.01,2013-04-19 16:38:00,
2013-04-19 11:43:00,54.8,29.0,30.31,NW,323,1.0,5.0,37,0.00,,CLR,0.00,VWS V14.01,2013-04-19 16:43:00,
2013-04-19 11:48:00,55.0,29.9,30.31,NE,40,3.0,4.0,38,0.00,,CLR,0.00,VWS V14.01,2013-04-19 16:48:00,
2013-04-19 11:53:00,54.8,29.7,30.30,NNE,15,1.0,5.0,38,0.00,,CLR,0.00,VWS V14.01,2013-04-19 16:53:00,
2013-04-19 11:58:00,55.0,29.2,30.31,North,11,1.0,8.0,37,0.00,,CLR,0.00,VWS V14.01,2013-04-19 16:58:00,
2013-04-19 12:03:00,55.3,30.1,30.31,North,349,3.0,4.0,38,0.00,,CLR,0.00,VWS V14.01,2013-04-19 17:03:00,
2013-04-19 12:08:00,55.9,30.0,30.30,NW,314,3.0,6.0,37,0.00,,CLR,0.00,VWS V14.01,2013-04-19 17:08:00,
2013-04-19 12:13:00,56.5,29.9,30.30,NNE,24,3.0,6.0,36,0.00,,CLR,0.00,VWS V14.01,2013-04-19 17:13:00,
2013-04-19 12:18:00,56.4,29.8,30.30,NW,324,1.0,9.0,36,0.00,,CLR,0.00,VWS V14.01,2013-04-19 17:18:00,
2013-04-19 12:23:00,57.3,32.6,30.30,ENE,61,0.0,3.0,39,0.00,,CLR,0.00,VWS V14.01,2013-04-19 17:23:00,
2013-04-19 12:28:00,57.9,30.4,30.30,WNW,286,1.0,2.0,35,0.00,,CLR,0.00,VWS V14.01,2013-04-19 17:28:00,
2013-04-19 12:33:00,58.1,31.3,30.30,WSW,252,1.0,8.0,36,0.00,,CLR,0.00,VWS V14.01,2013-04-19 17:33:00,
2013-04-19 12:38:00,58.6,30.3,30.29,NNW,346,0.0,2.0,34,0.00,,CLR,0.00,VWS V14.01,2013-04-19 17:38:00,
2013-04-19 12:43:00,58.9,31.3,30.29,NNW,346,2.0,2.0,35,0.00,,CLR,0.00,VWS V14.01,2013-04-19 17:43:00,
2013-04-19 12:48:00,59.1,30.0,30.29,WSW,253,1.0,3.0,33,0.00,,CLR,0.00,VWS V14.01,2013-04-19 17:48:00,
2013-04-19 12:53:00,59.1,28.5,30.28,NNW,344,2.0,7.0,31,0.00,,CLR,0.00,VWS V14.01,2013-04-19 17:53:00,
2013-04-19 12:58:00,59.0,28.4,30.28,NNW,328,4.0,4.0,31,0.00,,CLR,0.00,VWS V14.01,2013-04-19 17:58:00,
2013-04-19 13:03:00,59.0,30.0,30.28,West,271,0.0,3.0,33,0.00,,CLR,0.00,VWS V14.01,2013-04-19 18:03:00,
2013-04-19 13:08:00,59.7,33.4,30.27,NNE,28,5.0,5.0,37,0.00,,CLR,0.00,VWS V14.01,2013-04-19 18:08:00,
2013-04-19 13:13:00,60.0,30.8,30.27,NNE,20,2.0,3.0,33,0.00,,CLR,0.00,VWS V14.01,2013-04-19 18:13:00,
2013-04-19 13:18:00,60.2,28.7,30.27,NNW,344,1.0,4.0,30,0.00,,CLR,0.00,VWS V14.01,2013-04-19 18:18:00,
2013-04-19 13:23:00,60.1,30.9,30.27,West,265,0.0,3.0,33,0.00,,CLR,0.00,VWS V14.01,2013-04-19 18:23:00,
2013-04-19 13:28:00,60.6,30.6,30.27,SW,223,1.0,2.0,32,0.00,,CLR,0.00,VWS V14.01,2013-04-19 18:28:00,
2013-04-19 13:33:00,61.2,28.7,30.26,East,82,1.0,4.0,29,0.00,,CLR,0.00,VWS V14.01,2013-04-19 18:33:00,
2013-04-19 13:38:00,61.4,29.7,30.26,SSE,163,2.0,2.0,30,0.00,,CLR,0.00,VWS V14.01,2013-04-19 18:38:00,
2013-04-19 13:43:00,61.9,32.5,30.26,NW,307,1.0,2.0,33,0.00,,CLR,0.00,VWS V14.01,2013-04-19 18:43:00,
2013-04-19 13:48:00,62.0,27.7,30.26,NNE,30,1.0,4.0,27,0.00,,CLR,0.00,VWS V14.01,2013-04-19 18:48:00,
2013-04-19 13:53:00,61.7,28.3,30.26,NNW,330,2.0,4.0,28,0.00,,CLR,0.00,VWS V14.01,2013-04-19 18:53:00,
2013-04-19 13:58:00,61.2,27.9,30.26,NNW,342,1.0,4.0,28,0.00,,CLR,0.00,VWS V14.01,2013-04-19 18:58:00,
2013-04-19 14:03:00,61.4,30.5,30.25,West,279,2.0,4.0,31,0.00,,CLR,0.00,VWS V14.01,2013-04-19 19:03:00,
2013-04-19 14:08:00,61.4,28.0,30.25,WNW,290,2.0,3.0,28,0.00,,CLR,0.00,VWS V14.01,2013-04-19 19:08:00,
2013-04-19 14:13:00,61.5,29.8,30.25,NE,34,2.0,3.0,30,0.00,,CLR,0.00,VWS V14.01,2013-04-19 19:13:00,
2013-04-19 14:18:00,61.9,30.1,30.25,WNW,302,1.0,2.0,30,0.00,,CLR,0.00,VWS V14.01,2013-04-19 19:18:00,
2013-04-19 14:23:00,62.4,28.9,30.25,SW,222,2.0,3.0,28,0.00,,CLR,0.00,VWS V14.01,2013-04-19 19:23:00,
2013-04-19 14:28:00,62.2,27.8,30.25,NW,323,3.0,5.0,27,0.00,,CLR,0.00,VWS V14.01,2013-04-19 19:28:00,
2013-04-19 14:33:00,61.7,28.3,30.25,NNW,337,2.0,3.0,28,0.00,,CLR,0.00,VWS V14.01,2013-04-19 19:33:00,
2013-04-19 14:38:00,61.9,28.5,30.24,NNW,336,0.0,5.0,28,0.00,,CLR,0.00,VWS V14.01,2013-04-19 19:38:00,
2013-04-19 14:43:00,62.6,29.1,30.24,NW,317,1.0,3.0,28,0.00,,CLR,0.00,VWS V14.01,2013-04-19 19:43:00,
2013-04-19 14:48:00,63.3,28.8,30.24,NNW,329,2.0,4.0,27,0.00,,CLR,0.00,VWS V14.01,2013-04-19 19:48:00,
2013-04-19 14:53:00,63.3,33.0,30.24,ESE,119,1.0,3.0,32,0.00,,CLR,0.00,VWS V14.01,2013-04-19 19:53:00,
2013-04-19 14:58:00,63.6,26.2,30.24,NNE,15,2.0,6.0,24,0.00,,CLR,0.00,VWS V14.01,2013-04-19 19:58:00,
2013-04-19 15:03:00,63.0,26.6,30.24,North,11,3.0,9.0,25,0.00,,CLR,0.00,VWS V14.01,2013-04-19 20:03:00,
2013-04-19 15:08:00,62.4,28.0,30.23,NNE,31,6.0,9.0,27,0.00,,CLR,0.00,VWS V14.01,2013-04-19 20:08:00,
2013-04-19 15:13:00,62.3,26.1,30.23,NW,323,3.0,4.0,25,0.00,,CLR,0.00,VWS V14.01,2013-04-19 20:13:00,
2013-04-19 15:18:00,62.3,29.7,30.22,NNE,26,2.0,4.0,29,0.00,,CLR,0.00,VWS V14.01,2013-04-19 20:18:00,
2013-04-19 15:23:00,62.4,27.1,30.22,NNW,342,4.0,5.0,26,0.00,,CLR,0.00,VWS V14.01,2013-04-19 20:23:00,
2013-04-19 15:28:00,62.4,27.1,30.22,NE,51,3.0,5.0,26,0.00,,CLR,0.00,VWS V14.01,2013-04-19 20:28:00,
2013-04-19 15:33:00,62.8,27.4,30.22,North,5,1.0,5.0,26,0.00,,CLR,0.00,VWS V14.01,2013-04-19 20:33:00,
2013-04-19 15:38:00,62.8,26.5,30.21,NE,34,4.0,7.0,25,0.00,,CLR,0.00,VWS V14.01,2013-04-19 20:38:00,
2013-04-19 15:43:00,62.5,28.1,30.21,NNE,22,2.0,5.0,27,0.00,,CLR,0.00,VWS V14.01,2013-04-19 20:43:00,
2013-04-19 15:48:00,62.9,28.4,30.21,ENE,58,1.0,4.0,27,0.00,,CLR,0.00,VWS V14.01,2013-04-19 20:48:00,
2013-04-19 15:53:00,63.4,28.9,30.21,WNW,303,1.0,5.0,27,0.00,,CLR,0.00,VWS V14.01,2013-04-19 20:53:00,
2013-04-19 15:58:00,63.7,28.2,30.21,NW,313,0.0,4.0,26,0.00,,CLR,0.00,VWS V14.01,2013-04-19 20:58:00,
2013-04-19 16:03:00,63.0,28.5,30.20,NNE,17,0.0,4.0,27,0.00,,CLR,0.00,VWS V14.01,2013-04-19 21:03:00,
2013-04-19 16:08:00,63.1,27.7,30.20,NNE,20,4.0,8.0,26,0.00,,CLR,0.00,VWS V14.01,2013-04-19 21:08:00,
2013-04-19 16:13:00,62.9,28.4,30.20,NW,316,1.0,5.0,27,0.00,,CLR,0.00,VWS V14.01,2013-04-19 21:13:00,
2013-04-19 16:18:00,62.8,28.4,30.20,North,5,1.0,5.0,27,0.00,,CLR,0.00,VWS V14.01,2013-04-19 21:18:00,
2013-04-19 16:23:00,62.6,29.1,30.20,NNE,20,2.0,6.0,28,0.00,,CLR,0.00,VWS V14.01,2013-04-19 21:23:00,
2013-04-19 16:28:00,62.6,29.1,30.19,NNW,339,2.0,6.0,28,0.00,,CLR,0.00,VWS V14.01,2013-04-19 21:28:00,
2013-04-19 16:33:00,62.9,31.0,30.19,NE,54,2.0,4.0,30,0.00,,CLR,0.00,VWS V14.01,2013-04-19 21:33:00,
2013-04-19 16:38:00,63.4,30.6,30.19,SW,230,1.0,2.0,29,0.00,,CLR,0.00,VWS V14.01,2013-04-19 21:38:00,
2013-04-19 16:43:00,63.8,30.1,30.19,West,277,1.0,2.0,28,0.00,,CLR,0.00,VWS V14.01,2013-04-19 21:43:00,
2013-04-19 16:48:00,64.0,29.4,30.18,WSW,242,1.0,3.0,27,0.00,,CLR,0.00,VWS V14.01,2013-04-19 21:48:00,
2013-04-19 16:53:00,63.7,28.2,30.19,NNE,31,1.0,5.0,26,0.00,,CLR,0.00,VWS V14.01,2013-04-19 21:53:00,
2013-04-19 16:58:00,63.1,27.7,30.19,NNW,348,3.0,4.0,26,0.00,,CLR,0.00,VWS V14.01,2013-04-19 21:58:00,
2013-04-19 17:03:00,63.0,30.3,30.18,WNW,291,0.0,3.0,29,0.00,,CLR,0.00,VWS V14.01,2013-04-19 22:03:00,
2013-04-19 17:08:00,63.0,28.5,30.18,NW,317,1.0,4.0,27,0.00,,CLR,0.00,VWS V14.01,2013-04-19 22:08:00,
2013-04-19 17:13:00,62.9,29.3,30.18,NNW,345,2.0,3.0,28,0.00,,CLR,0.00,VWS V14.01,2013-04-19 22:13:00,
2013-04-19 17:18:00,63.0,29.4,30.18,NNE,30,1.0,3.0,28,0.00,,CLR,0.00,VWS V14.01,2013-04-19 22:18:00,
2013-04-19 17:23:00,63.3,30.5,30.18,West,281,1.0,3.0,29,0.00,,CLR,0.00,VWS V14.01,2013-04-19 22:23:00,
2013-04-19 17:28:00,63.7,30.9,30.18,East,93,1.0,2.0,29,0.00,,CLR,0.00,VWS V14.01,2013-04-19 22:28:00,
2013-04-19 17:33:00,64.1,31.2,30.18,West,272,1.0,4.0,29,0.00,,CLR,0.00,VWS V14.01,2013-04-19 22:33:00,
2013-04-19 17:38:00,63.9,30.2,30.17,South,183,0.0,1.0,28,0.00,,CLR,0.00,VWS V14.01,2013-04-19 22:38:00,
2013-04-19 17:43:00,63.7,29.1,30.17,NNE,17,1.0,8.0,27,0.00,,CLR,0.00,VWS V14.01,2013-04-19 22:43:00,
2013-04-19 17:48:00,63.5,30.7,30.18,NNE,32,1.0,3.0,29,0.00,,CLR,0.00,VWS V14.01,2013-04-19 22:48:00,
2013-04-19 17:53:00,63.3,29.7,30.18,North,11,3.0,6.0,28,0.00,,CLR,0.00,VWS V14.01,2013-04-19 22:53:00,
2013-04-19 17:58:00,63.2,29.6,30.17,NNW,335,0.0,4.0,28,0.00,,CLR,0.00,VWS V14.01,2013-04-19 22:58:00,
2013-04-19 18:03:00,63.1,28.6,30.17,NNW,327,1.0,2.0,27,0.00,,CLR,0.00,VWS V14.01,2013-04-19 23:03:00,
2013-04-19 18:08:00,62.8,30.1,30.17,SW,223,2.0,2.0,29,0.00,,CLR,0.00,VWS V14.01,2013-04-19 23:08:00,
2013-04-19 18:13:00,63.3,31.4,30.17,NNW,330,0.0,2.0,30,0.00,,CLR,0.00,VWS V14.01,2013-04-19 23:13:00,
2013-04-19 18:18:00,63.6,29.9,30.17,East,94,0.0,2.0,28,0.00,,CLR,0.00,VWS V14.01,2013-04-19 23:18:00,
2013-04-19 18:23:00,63.7,29.1,30.17,NNW,339,1.0,3.0,27,0.00,,CLR,0.00,VWS V14.01,2013-04-19 23:23:00,
2013-04-19 18:28:00,63.2,30.4,30.17,NNW,334,0.0,1.0,29,0.00,,CLR,0.00,VWS V14.01,2013-04-19 23:28:00,
2013-04-19 18:33:00,63.0,29.4,30.17,NNW,342,0.0,1.0,28,0.00,,CLR,0.00,VWS V14.01,2013-04-19 23:33:00,
2013-04-19 18:38:00,62.7,29.1,30.17,NNW,348,0.0,2.0,28,0.00,,CLR,0.00,VWS V14.01,2013-04-19 23:38:00,
2013-04-19 18:43:00,62.4,29.8,30.17,NNW,336,0.0,1.0,29,0.00,,CLR,0.00,VWS V14.01,2013-04-19 23:43:00,
2013-04-19 18:48:00,62.2,29.6,30.17,ENE,59,1.0,2.0,29,0.00,,CLR,0.00,VWS V14.01,2013-04-19 23:48:00,
2013-04-19 18:53:00,62.0,31.0,30.17,WNW,292,0.0,0.0,31,0.00,,CLR,0.00,VWS V14.01,2013-04-19 23:53:00,
2013-04-19 18:58:00,61.8,30.9,30.17,ESE,113,0.0,1.0,31,0.00,,CLR,0.00,VWS V14.01,2013-04-19 23:58:00,
2013-04-19 19:03:00,61.6,31.5,30.17,WNW,288,0.0,2.0,32,0.00,,CLR,0.00,VWS V14.01,2013-04-20 00:03:00,
2013-04-19 19:08:00,61.3,29.6,30.17,SSW,198,0.0,1.0,30,0.00,,CLR,0.00,VWS V14.01,2013-04-20 00:08:00,
2013-04-19 19:13:00,61.0,31.0,30.17,SE,129,0.0,0.0,32,0.00,,CLR,0.00,VWS V14.01,2013-04-20 00:13:00,
2013-04-19 19:18:00,60.7,30.7,30.16,WSW,242,0.0,0.0,32,0.00,,CLR,0.00,VWS V14.01,2013-04-20 00:18:00,
2013-04-19 19:23:00,60.5,31.3,30.16,WSW,242,0.0,0.0,33,0.00,,CLR,0.00,VWS V14.01,2013-04-20 00:23:00,
2013-04-19 19:28:00,60.3,31.1,30.16,SSW,208,0.0,1.0,33,0.00,,CLR,0.00,VWS V14.01,2013-04-20 00:28:00,
2013-04-19 19:33:00,60.2,31.8,30.16,SW,217,0.0,0.0,34,0.00,,CLR,0.00,VWS V14.01,2013-04-20 00:33:00,
2013-04-19 19:38:00,59.9,30.8,30.16,SW,217,0.0,1.0,33,0.00,,CLR,0.00,VWS V14.01,2013-04-20 00:38:00,
2013-04-19 19:43:00,59.4,31.0,30.16,SW,217,0.0,0.0,34,0.00,,CLR,0.00,VWS V14.01,2013-04-20 00:43:00,
2013-04-19 19:48:00,58.9,32.0,30.16,SW,217,0.0,0.0,36,0.00,,CLR,0.00,VWS V14.01,2013-04-20 00:48:00,
2013-04-19 19:53:00,58.3,32.2,30.16,SW,217,0.0,0.0,37,0.00,,CLR,0.00,VWS V14.01,2013-04-20 00:53:00,
2013-04-19 19:58:00,57.8,33.7,30.17,SW,217,0.0,0.0,40,0.00,,CLR,0.00,VWS V14.01,2013-04-20 00:58:00,
2013-04-19 20:03:00,57.2,33.7,30.17,SW,217,0.0,0.0,41,0.00,,CLR,0.00,VWS V14.01,2013-04-20 01:03:00,
2013-04-19 20:08:00,56.6,34.4,30.17,SW,217,0.0,0.0,43,0.00,,CLR,0.00,VWS V14.01,2013-04-20 01:08:00,
2013-04-19 20:13:00,55.9,34.9,30.17,SW,217,0.0,0.0,45,0.00,,CLR,0.00,VWS V14.01,2013-04-20 01:13:00,
2013-04-19 20:18:00,55.1,34.7,30.17,SW,217,0.0,0.0,46,0.00,,CLR,0.00,VWS V14.01,2013-04-20 01:18:00,
2013-04-19 20:23:00,54.5,36.3,30.17,SW,217,0.0,0.0,50,0.00,,CLR,0.00,VWS V14.01,2013-04-20 01:23:00,
2013-04-19 20:28:00,54.0,36.3,30.17,SW,217,0.0,0.0,51,0.00,,CLR,0.00,VWS V14.01,2013-04-20 01:28:00,
2013-04-19 20:33:00,53.5,35.3,30.17,SW,217,0.0,0.0,50,0.00,,CLR,0.00,VWS V14.01,2013-04-20 01:33:00,
2013-04-19 20:38:00,53.0,36.3,30.17,SW,217,0.0,0.0,53,0.00,,CLR,0.00,VWS V14.01,2013-04-20 01:38:00,
2013-04-19 20:43:00,52.4,37.2,30.17,SW,217,0.0,0.0,56,0.00,,CLR,0.00,VWS V14.01,2013-04-20 01:43:00,
2013-04-19 20:48:00,52.0,37.2,30.18,SW,217,0.0,0.0,57,0.00,,CLR,0.00,VWS V14.01,2013-04-20 01:48:00,
2013-04-19 20:53:00,51.8,37.5,30.18,SW,217,0.0,0.0,58,0.00,,CLR,0.00,VWS V14.01,2013-04-20 01:53:00,
2013-04-19 20:58:00,51.4,37.6,30.18,SW,217,0.0,0.0,59,0.00,,CLR,0.00,VWS V14.01,2013-04-20 01:58:00,
2013-04-19 21:03:00,50.9,37.1,30.18,SW,217,0.0,0.0,59,0.00,,CLR,0.00,VWS V14.01,2013-04-20 02:03:00,
2013-04-19 21:08:00,50.4,37.5,30.18,SW,217,0.0,0.0,61,0.00,,CLR,0.00,VWS V14.01,2013-04-20 02:08:00,
2013-04-19 21:13:00,50.0,37.9,30.18,SW,217,0.0,0.0,63,0.00,,CLR,0.00,VWS V14.01,2013-04-20 02:13:00,
2013-04-19 21:18:00,50.0,38.3,30.18,SW,217,0.0,0.0,64,0.00,,CLR,0.00,VWS V14.01,2013-04-20 02:18:00,
2013-04-19 21:23:00,49.8,38.1,30.18,SW,217,0.0,0.0,64,0.00,,CLR,0.00,VWS V14.01,2013-04-20 02:23:00,
2013-04-19 21:28:00,49.5,37.8,30.18,SW,217,0.0,0.0,64,0.00,,CLR,0.00,VWS V14.01,2013-04-20 02:28:00,
2013-04-19 21:33:00,49.5,37.8,30.18,SW,217,0.0,0.0,64,0.00,,CLR,0.00,VWS V14.01,2013-04-20 02:33:00,
2013-04-19 21:38:00,49.5,37.8,30.18,SW,217,0.0,0.0,64,0.00,,CLR,0.00,VWS V14.01,2013-04-20 02:38:00,
2013-04-19 21:43:00,49.3,38.4,30.18,SW,217,0.0,0.0,66,0.00,,CLR,0.00,VWS V14.01,2013-04-20 02:43:00,
2013-04-19 21:48:00,49.1,37.9,30.19,SW,217,0.0,0.0,65,0.00,,CLR,0.00,VWS V14.01,2013-04-20 02:48:00,
2013-04-19 21:53:00,49.1,38.2,30.19,SW,217,0.0,0.0,66,0.00,,CLR,0.00,VWS V14.01,2013-04-20 02:53:00,
2013-04-19 21:58:00,49.0,38.2,30.18,SW,217,0.0,0.0,66,0.00,,CLR,0.00,VWS V14.01,2013-04-20 02:58:00,
2013-04-19 22:03:00,48.8,38.3,30.19,SW,217,0.0,0.0,67,0.00,,CLR,0.00,VWS V14.01,2013-04-20 03:03:00,
2013-04-19 22:08:00,48.5,38.4,30.19,SW,217,0.0,0.0,68,0.00,,CLR,0.00,VWS V14.01,2013-04-20 03:08:00,
2013-04-19 22:13:00,48.2,38.5,30.19,SW,217,0.0,0.0,69,0.00,,CLR,0.00,VWS V14.01,2013-04-20 03:13:00,
2013-04-19 22:18:00,48.1,38.4,30.19,SW,217,0.0,0.0,69,0.00,,CLR,0.00,VWS V14.01,2013-04-20 03:18:00,
2013-04-19 22:23:00,47.8,38.5,30.19,SW,217,0.0,0.0,70,0.00,,CLR,0.00,VWS V14.01,2013-04-20 03:23:00,
2013-04-19 22:28:00,47.8,38.9,30.19,SW,217,0.0,0.0,71,0.00,,CLR,0.00,VWS V14.01,2013-04-20 03:28:00,
2013-04-19 22:33:00,48.0,38.7,30.19,SW,217,0.0,0.0,70,0.00,,CLR,0.00,VWS V14.01,2013-04-20 03:33:00,
2013-04-19 22:38:00,47.9,37.9,30.19,SW,217,0.0,0.0,68,0.00,,CLR,0.00,VWS V14.01,2013-04-20 03:38:00,
2013-04-19 22:43:00,48.0,38.0,30.19,SW,217,0.0,0.0,68,0.00,,CLR,0.00,VWS V14.01,2013-04-20 03:43:00,
2013-04-19 22:48:00,48.5,38.4,30.19,SW,217,0.0,0.0,68,0.00,,CLR,0.00,VWS V14.01,2013-04-20 03:48:00,
2013-04-19 22:53:00,48.8,38.0,30.19,SW,217,0.0,0.0,66,0.00,,CLR,0.00,VWS V14.01,2013-04-20 03:53:00,
2013-04-19 22:58:00,49.1,37.9,30.19,SW,217,0.0,0.0,65,0.00,,CLR,0.00,VWS V14.01,2013-04-20 03:58:00,
2013-04-19 23:01:00,49.0,37.8,30.19,SW,217,0.0,0.0,65,0.00,,FEW010,0.00,VWS V14.01,2013-04-20 04:01:00,
2013-04-19 23:06:00,49.1,38.2,30.20,SW,217,0.0,0.0,66,0.00,,FEW010,0.00,VWS V14.01,2013-04-20 04:06:00,
2013-04-19 23:11:00,49.4,38.1,30.20,SE,139,0.0,0.0,65,0.00,,FEW010,0.00,VWS V14.01,2013-04-20 04:11:00,
2013-04-19 23:16:00,49.8,38.9,30.20,SSE,155,0.0,0.0,66,0.00,,FEW010,0.00,VWS V14.01,2013-04-20 04:16:00,
2013-04-19 23:21:00,49.9,38.6,30.20,SSE,155,0.0,0.0,65,0.00,,FEW010,0.00,VWS V14.01,2013-04-20 04:21:00,
2013-04-19 23:26:00,49.9,38.6,30.20,SSE,155,0.0,0.0,65,0.00,,FEW010,0.00,VWS V14.01,2013-04-20 04:26:00,
2013-04-19 23:31:00,50.0,37.9,30.20,SSE,156,0.0,0.0,63,0.00,,FEW010,0.00,VWS V14.01,2013-04-20 04:31:00,
2013-04-19 23:36:00,50.0,37.5,30.20,SSW,198,0.0,0.0,62,0.00,,FEW010,0.00,VWS V14.01,2013-04-20 04:36:00,
2013-04-19 23:41:00,50.4,37.5,30.21,SSE,163,1.0,1.0,61,0.00,,FEW010,0.00,VWS V14.01,2013-04-20 04:41:00,
2013-04-19 23:46:00,50.7,36.9,30.21,South,190,1.0,2.0,59,0.00,,FEW010,0.00,VWS V14.01,2013-04-20 04:46:00,
2013-04-19 23:51:00,51.0,36.3,30.20,SSW,200,0.0,0.0,57,0.00,,FEW010,0.00,VWS V14.01,2013-04-20 04:51:00,
2013-04-19 23:56:00,51.1,36.0,30.20,SSE,168,0.0,1.0,56,0.00,,FEW010,0.00,VWS V14.01,2013-04-20 04:56:00,